Preview of NWS' New Version of Forecast
This preview is not operational and should not be used for support decisions.

Terminal Aerodrome Forecast (TAF)

Issued by National Weather Service (NWS)

                            
245 
FTUS42 KKEY 252320
TAFEYW
TAF
KEYW 252320Z 2600/2624 11010KT P6SM FEW025=